Warsaw, IN

3:03 AM EDT on May 01, 2017 (GMT -0400)
Warsaw Municipal

Weather History for KASW - September, 2014

Change the Weather History Date:

Friday, September 26, 2014

  Actual Average Record
Temperature  
Mean Temperature 64 °F -  
Max Temperature 78 °F 68 °F 85 °F (1959)
Min Temperature 50 °F 47 °F 30 °F (1966)
Degree Days  
Heating Degree Days 1    
Growing Degree Days 14 (Base 50)    
Moisture  
Dew Point 53 °F    
Average Humidity 78    
Maximum Humidity 100    
Minimum Humidity 36    
Precipitation  
Precipitation 0.00 in - - ()
Sea Level Pressure  
Sea Level Pressure 30.26 in    
Wind  
Wind Speed 3 mph (ESE)    
Max Wind Speed 6 mph    
Max Gust Speed -    
Visibility 8 miles    
Events Fog    
Averages and records for this station are not official NWS values.
T = Trace of Precipitation, MM = Missing Value Source: NWS Daily Summary

Daily Weather History Graph

Daily Weather History Graph

Search for Another Location

Airport or City:

Trip Planner

Search our weather history database for the weather conditions in past years. The results will help you decide how hot, cold, wet, or windy it might be!

Date:

Astronomy

Sep. 26, 2014 Rise Set
Actual Time 7:34 AM EDT 7:33 PM EDT
Civil Twilight 7:07 AM EDT 8:01 PM EDT
Nautical Twilight 6:35 AM EDT 8:33 PM EDT
Astronomical Twilight 6:02 AM EDT 9:05 PM EDT
Moon 9:51 AM EDT (9/26) 8:51 PM EDT (9/26)
Length of Visible Light 12h 53m
Length of Day
11h 58m
Waxing Crescent, 6% of the Moon is Illuminated
Sep 26
Waxing Crescent
Oct 1
First Quarter
Oct 8
Full
Oct 15
Last Quarter
Oct 23
New

Hourly Weather History & Observations

Time (EDT) Temp. Dew Point Humidity Pressure Visibility Wind Dir Wind Speed Gust Speed Precip Events Conditions
12:15 AM 55.4 °F 50.0 °F 82% 30.26 in 10.0 mi East 4.6 mph - N/A   Clear
12:35 AM 53.6 °F 50.0 °F 88% 30.25 in 10.0 mi ESE 3.5 mph - N/A   Clear
12:55 AM 55.4 °F 50.0 °F 82% 30.26 in 10.0 mi Calm Calm - N/A   Clear
1:15 AM 53.6 °F 50.0 °F 88% 30.26 in 10.0 mi East 3.5 mph - N/A   Clear
1:35 AM 55.4 °F 50.0 °F 82% 30.26 in 10.0 mi ESE 4.6 mph - N/A   Clear
1:55 AM 53.6 °F 50.0 °F 88% 30.26 in 10.0 mi East 3.5 mph - N/A   Clear
2:15 AM 53.6 °F 50.0 °F 88% 30.26 in 10.0 mi ESE 3.5 mph - N/A   Clear
2:35 AM 51.8 °F 50.0 °F 94% 30.26 in 10.0 mi East 3.5 mph - N/A   Clear
2:55 AM 51.8 °F 50.0 °F 94% 30.25 in 10.0 mi East 4.6 mph - N/A   Clear
3:15 AM 53.6 °F 51.8 °F 94% 30.25 in 10.0 mi East 3.5 mph - N/A   Clear
3:35 AM 53.6 °F 51.8 °F 94% 30.25 in 10.0 mi East 3.5 mph - N/A   Clear
3:55 AM 53.6 °F 51.8 °F 94% 30.25 in 10.0 mi East 3.5 mph - N/A   Clear
4:15 AM 51.8 °F 51.8 °F 100% 30.25 in 10.0 mi Calm Calm - N/A   Clear
4:35 AM 53.6 °F 51.8 °F 94% 30.25 in 10.0 mi East 4.6 mph - N/A   Clear
4:55 AM 51.8 °F 51.8 °F 100% 30.25 in 7.0 mi Calm Calm - N/A   Clear
5:15 AM 53.6 °F 51.8 °F 94% 30.25 in 7.0 mi East 3.5 mph - N/A   Clear
5:35 AM 53.6 °F 51.8 °F 94% 30.25 in 7.0 mi East 3.5 mph - N/A   Clear
5:55 AM 53.6 °F 51.8 °F 94% 30.25 in 5.0 mi Calm Calm - N/A   Clear
6:15 AM 51.8 °F 51.8 °F 100% 30.25 in 2.0 mi East 3.5 mph - N/A   Clear
6:35 AM 51.8 °F 51.8 °F 100% 30.26 in 2.5 mi Calm Calm - N/A   Clear
6:55 AM 51.8 °F 50.0 °F 94% 30.26 in 1.0 mi East 3.5 mph - N/A   Mist
7:15 AM 50.0 °F 50.0 °F 100% 30.26 in 0.8 mi Calm Calm - N/A   Scattered Clouds
7:35 AM 51.8 °F 51.8 °F 100% 30.26 in 1.5 mi Calm Calm - N/A   Mist
7:55 AM 50.0 °F 50.0 °F 100% 30.27 in 0.8 mi Calm Calm - N/A   Mist
8:15 AM 50.0 °F 50.0 °F 100% 30.27 in 0.2 mi Calm Calm - N/A Fog Fog
8:35 AM 51.8 °F 51.8 °F 100% 30.27 in 0.2 mi Calm Calm - N/A Fog Fog
8:55 AM 53.6 °F 53.6 °F 100% 30.28 in 2.5 mi Calm Calm - N/A   Clear
9:15 AM 55.4 °F 55.4 °F 100% 30.28 in 3.0 mi East 3.5 mph - N/A   Clear
9:35 AM 59.0 °F 55.4 °F 88% 30.29 in 5.0 mi SE 4.6 mph - N/A   Clear
9:55 AM 60.8 °F 55.4 °F 82% 30.29 in 7.0 mi ESE 3.5 mph - N/A   Clear
10:15 AM 62.6 °F 55.4 °F 77% 30.29 in 10.0 mi ESE 4.6 mph - N/A   Clear
10:35 AM 64.4 °F 55.4 °F 73% 30.29 in 10.0 mi Calm Calm - N/A   Clear
10:55 AM 66.2 °F 55.4 °F 68% 30.29 in 10.0 mi Calm Calm - N/A   Clear
11:15 AM 69.8 °F 57.2 °F 64% 30.29 in 10.0 mi Calm Calm - N/A   Clear
11:35 AM 69.8 °F 55.4 °F 60% 30.29 in 10.0 mi South 3.5 mph - N/A   Clear
11:55 AM 71.6 °F 55.4 °F 57% 30.29 in 10.0 mi SE 4.6 mph - N/A   Clear
12:15 PM 71.6 °F 55.4 °F 57% 30.29 in 10.0 mi SSE 3.5 mph - N/A   Clear
12:35 PM 73.4 °F 55.4 °F 53% 30.29 in 10.0 mi SSE 3.5 mph - N/A   Clear
12:55 PM 73.4 °F 53.6 °F 50% 30.29 in 10.0 mi SSE 4.6 mph - N/A   Clear
1:15 PM 75.2 °F 53.6 °F 47% 30.29 in 10.0 mi SSW 3.5 mph - N/A   Clear
1:35 PM 75.2 °F 53.6 °F 47% 30.29 in 10.0 mi SSE 3.5 mph - N/A   Clear
1:55 PM 77.0 °F 53.6 °F 44% 30.28 in 10.0 mi SSW 3.5 mph - N/A   Clear
2:15 PM 77.0 °F 53.6 °F 44% 30.27 in 10.0 mi SE 3.5 mph - N/A   Clear
2:35 PM 77.0 °F 55.4 °F 47% 30.26 in 10.0 mi Calm Calm - N/A   Clear
2:55 PM 77.0 °F 55.4 °F 47% 30.26 in 10.0 mi South 3.5 mph - N/A   Clear
3:15 PM 77.0 °F 53.6 °F 44% 30.26 in 10.0 mi ENE 3.5 mph - N/A   Clear
3:35 PM 77.0 °F 53.6 °F 44% 30.25 in 10.0 mi ESE 3.5 mph - N/A   Clear
3:55 PM 78.8 °F 55.4 °F 44% 30.24 in 10.0 mi ESE 4.6 mph - N/A   Clear
4:15 PM 77.0 °F 53.6 °F 44% 30.24 in 10.0 mi Calm Calm - N/A   Clear
5:35 PM 75.2 °F 46.4 °F 36% 30.24 in 10.0 mi ESE 3.5 mph - N/A   Clear
8:00 PM 64.4 °F 55.4 °F 73% 30.23 in 7.0 mi Calm Calm - N/A   Clear
8:15 PM 62.6 °F 53.6 °F 72% 30.24 in 10.0 mi Calm Calm - N/A   Clear
8:35 PM 62.6 °F 53.6 °F 72% 30.24 in 10.0 mi East 3.5 mph - N/A   Clear
8:55 PM 60.8 °F 53.6 °F 77% 30.24 in 10.0 mi Calm Calm - N/A   Clear
9:15 PM 59.0 °F 53.6 °F 82% 30.24 in 10.0 mi Calm Calm - N/A   Clear
9:35 PM 59.0 °F 55.4 °F 88% 30.25 in 10.0 mi Calm Calm - N/A   Clear
9:55 PM 57.2 °F 55.4 °F 94% 30.25 in 10.0 mi Calm Calm - N/A   Clear
10:15 PM 59.0 °F 53.6 °F 82% 30.25 in 10.0 mi Calm Calm - N/A   Clear
10:35 PM 55.4 °F 53.6 °F 94% 30.26 in 10.0 mi Calm Calm - N/A   Clear
10:55 PM 55.4 °F 53.6 °F 94% 30.26 in 10.0 mi Calm Calm - N/A   Clear
11:15 PM 55.4 °F 53.6 °F 94% 30.26 in 10.0 mi East 3.5 mph - N/A   Clear
11:35 PM 59.0 °F 51.8 °F 77% 30.26 in 10.0 mi East 4.6 mph - N/A   Clear
11:55 PM 57.2 °F 51.8 °F 82% 30.26 in 10.0 mi East 5.8 mph - N/A   Clear